Houghton Lake, MI

2:22 PM EDT on March 29, 2017 (GMT -0400)
Roscommon County

Weather History for KHTL - November, 2011

Change the Weather History Date:

Wednesday, November 16, 2011

  Actual Average Record
Temperature  
Mean Temperature 37 °F 35 °F  
Max Temperature 43 °F 42 °F 69 °F (1931)
Min Temperature 31 °F 27 °F -11 °F (1933)
Degree Days  
Heating Degree Days 28 30  
Month to date heating degree days 358 440  
Since 1 July heating degree days 1157 1418  
Moisture  
Dew Point 24 °F    
Average Humidity 66    
Maximum Humidity 82    
Minimum Humidity 50    
Precipitation  
Precipitation 0.00 in 0.08 in 0.69 in (1956)
Month to date precipitation 2.05 1.26  
Year to date precipitation 29.28 26.04  
Snow  
Snow 0.00 in 0.30 in 5.60 in (1989)
Month to date snowfall T 3.1  
Since 1 July snowfall T 3.7  
Snow Depth 0.00 in    
Sea Level Pressure  
Sea Level Pressure 29.88 in    
Wind  
Wind Speed 13 mph (West)    
Max Wind Speed 21 mph    
Max Gust Speed 28 mph    
Visibility 10 miles    
Events      
T = Trace of Precipitation, MM = Missing Value Source: NWS Daily Summary

Daily Weather History Graph

Daily Weather History Graph

Search for Another Location

Airport or City:

Trip Planner

Search our weather history database for the weather conditions in past years. The results will help you decide how hot, cold, wet, or windy it might be!

Date:

Astronomy

Nov. 16, 2011 Rise Set
Actual Time 7:35 AM EST 5:10 PM EST
Civil Twilight 7:04 AM EST 5:42 PM EST
Nautical Twilight 6:28 AM EST 6:17 PM EST
Astronomical Twilight 5:54 AM EST 6:51 PM EST
Moon 10:25 PM EST (11/16) 12:10 PM EST (11/16)
Length of Visible Light 10h 38m
Length of Day
9h 35m
Waning Gibbous, 70% of the Moon is Illuminated
Nov 16
Waning Gibbous
Nov 18
Last Quarter
Nov 25
New
Dec 2
First Quarter
Dec 10
Full

Hourly Weather History & Observations

Time (EST) Temp. Windchill Dew Point Humidity Pressure Visibility Wind Dir Wind Speed Gust Speed Precip Events Conditions
12:53 AM 41.0 °F 37.1 °F 36.0 °F 82% 29.74 in 10.0 mi SSW 5.8 mph - N/A   Clear
1:53 AM 42.1 °F 37.1 °F 35.1 °F 76% 29.74 in 10.0 mi SW 8.1 mph - N/A   Clear
2:53 AM 41.0 °F 36.4 °F 34.0 °F 76% 29.75 in 10.0 mi WSW 6.9 mph - N/A   Clear
3:53 AM 41.0 °F 33.9 °F 32.0 °F 70% 29.76 in 10.0 mi West 12.7 mph - N/A   Clear
4:53 AM 39.0 °F 31.8 °F 28.9 °F 67% 29.78 in 10.0 mi West 11.5 mph - N/A   Clear
5:53 AM 37.0 °F 28.5 °F 25.0 °F 62% 29.79 in 10.0 mi West 13.8 mph - N/A   Clear
6:53 AM 36.0 °F 27.1 °F 24.1 °F 62% 29.81 in 10.0 mi West 13.8 mph 19.6 mph N/A   Clear
7:53 AM 35.1 °F 26.4 °F 24.1 °F 64% 29.83 in 10.0 mi West 12.7 mph - N/A   Clear
8:53 AM 35.1 °F 26.4 °F 24.1 °F 64% 29.86 in 10.0 mi West 12.7 mph 20.7 mph N/A   Clear
9:53 AM 36.0 °F 27.1 °F 24.1 °F 62% 29.87 in 10.0 mi West 13.8 mph 20.7 mph N/A   Scattered Clouds
10:05 AM 35.6 °F 26.2 °F 24.8 °F 65% 29.84 in 10.0 mi West 15.0 mph 23.0 mph N/A   Mostly Cloudy
10:14 AM 37.4 °F 28.2 °F 24.8 °F 60% 29.84 in 10.0 mi WNW 16.1 mph 26.5 mph N/A   Scattered Clouds
10:53 AM 37.9 °F 28.9 °F 23.0 °F 55% 29.89 in 10.0 mi West 16.1 mph 24.2 mph N/A   Clear
11:53 AM 37.9 °F 30.9 °F 23.0 °F 55% 29.89 in 10.0 mi WNW 10.4 mph 21.9 mph N/A   Mostly Cloudy
12:53 PM 39.9 °F 31.4 °F 23.0 °F 51% 29.89 in 10.0 mi West 16.1 mph 23.0 mph N/A   Mostly Cloudy
1:53 PM 39.0 °F 30.6 °F 23.0 °F 53% 29.90 in 10.0 mi West 15.0 mph 21.9 mph N/A   Overcast
2:53 PM 36.0 °F 27.1 °F 21.9 °F 57% 29.91 in 10.0 mi West 13.8 mph - N/A   Overcast
3:53 PM 35.1 °F 25.5 °F 21.0 °F 57% 29.94 in 10.0 mi West 15.0 mph 25.3 mph N/A   Overcast
4:53 PM 34.0 °F 24.2 °F 21.0 °F 59% 29.96 in 10.0 mi West 15.0 mph 21.9 mph N/A   Overcast
5:53 PM 34.0 °F 22.7 °F 19.0 °F 54% 29.99 in 10.0 mi West 19.6 mph 26.5 mph N/A   Overcast
6:53 PM 33.1 °F 23.4 °F 19.9 °F 59% 30.00 in 10.0 mi West 13.8 mph - N/A   Scattered Clouds
7:53 PM 32.0 °F 24.2 °F 21.0 °F 64% 30.01 in 10.0 mi WSW 9.2 mph - N/A   Partly Cloudy
8:53 PM 32.0 °F 22.1 °F 19.9 °F 61% 30.01 in 10.0 mi West 13.8 mph - N/A   Partly Cloudy
9:53 PM 32.0 °F 23.0 °F 19.0 °F 59% 30.01 in 10.0 mi West 11.5 mph - N/A   Clear
10:53 PM 32.0 °F 23.0 °F 19.9 °F 61% 30.00 in 10.0 mi WSW 11.5 mph 18.4 mph N/A   Clear
11:53 PM 32.0 °F 22.5 °F 18.0 °F 56% 30.00 in 10.0 mi West 12.7 mph - N/A   Clear